Back to catalog

FENGYUN 1C DEB

AliveSSO
NORAD 38495·DEBRIS·🇨🇳 China

Launched May 10, 1999 from Taiyuan Satellite Launch Center

Loading…

Next Passes (next 24 hours)

TLE

FreshSource: Space-Track

Epoch: Sep 12, 2026, 05:44 UTC

1 38495U 99025ESE 26255.23939735  .00001647  00000-0  15306-2 0  9990
2 38495  99.1556 263.7063 0249487 142.5475 219.3351 13.70425779648574

Track FENGYUN 1C DEB in real time with AllMySat

Download on the App Store